EW8716 Weather Reports


time (UTC)temp
C
wind
direction
speed
KPH
gust
KPH
rain 1hr
cm
rain 24hr
cm
rain mn
cm
humidity
%
barometer
mb
20260507232617 10 211 0.0 0.0 0.00 0.00 0.00 64 1010.1
20260507231833 10 117 0.0 0.0 0.00 0.00 0.00 64 1010.0
20260507231332 10 201 0.0 0.0 0.00 0.00 0.00 64 1010.1
20260507230832 10 225 0.0 0.0 0.00 0.00 0.00 64 1010.1
20260507230405 10 226 0.0 0.0 0.00 0.00 0.00 64 1010.0
20260507230355 10 219 0.0 0.0 0.00 0.00 0.00 64 1010.1
20260507225332 10 183 0.0 0.0 0.00 0.00 0.00 64 1009.9
20260507224832 10 209 0.0 0.0 0.00 0.00 0.00 64 1009.9
20260507224331 10 178 0.0 0.0 0.00 0.00 0.00 64 1010.0
20260507223833 10 203 0.0 0.0 0.00 0.00 0.00 64 1010.0
20260507223615 10 182 0.0 0.0 0.00 0.00 0.00 64 1010.0
20260507222829 10 191 0.0 0.0 0.00 0.00 0.00 64 1009.9
20260507222329 10 164 0.0 0.0 0.00 0.00 0.00 64 1010.0
20260507221827 10 182 0.0 0.0 0.00 0.00 0.00 65 1009.9
20260507221615 10 182 0.0 0.0 0.00 0.00 0.00 65 1009.9
20260507220828 10 215 0.0 0.0 0.00 0.00 0.00 65 1009.9
20260507220325 10 182 0.0 0.0 0.00 0.00 0.00 65 1009.9
20260507215825 10 220 0.0 0.0 0.00 0.00 0.00 65 1009.9
20260507215325 10 176 0.0 0.0 0.00 0.00 0.00 65 1009.9
20260507214825 10 123 0.0 0.0 0.00 0.00 0.00 65 1009.9
20260507214326 10 246 0.0 0.0 0.00 0.00 0.00 65 1009.8
20260507213823 11 175 0.0 0.0 0.00 0.00 0.00 65 1009.7
20260507213324 11 218 0.0 0.0 0.00 0.00 0.00 66 1009.7
20260507212823 11 222 0.0 0.0 0.00 0.00 0.00 66 1009.7
20260507212322 11 212 0.0 0.0 0.00 0.00 0.00 66 1009.7
20260507211822 11 229 0.0 0.0 0.00 0.00 0.00 66 1009.8
20260507211320 11 249 0.0 0.0 0.00 0.00 0.00 66 1009.8
20260507210819 11 110 0.0 0.0 0.00 0.00 0.00 66 1009.9
20260507210320 11 205 0.0 0.0 0.00 0.00 0.00 66 1009.9
20260507205821 11 213 0.0 0.0 0.00 0.00 0.00 66 1010.1
20260507205320 11 0 0.0 0.0 0.00 0.00 0.00 66 1010.1
20260507204821 11 227 0.0 0.0 0.00 0.00 0.00 66 1010.1
20260507204609 11 166 0.0 0.0 0.00 0.00 0.00 65 1010.1
20260507203819 11 126 0.0 0.0 0.00 0.00 0.00 65 1010.1
20260507203319 11 136 0.0 0.0 0.00 0.00 0.00 65 1010.1
20260507203148 11 210 0.0 0.0 0.00 0.00 0.00 65 1010.1
20260507203142 11 124 0.0 0.0 0.00 0.00 0.00 65 1010.1
20260507202108 11 196 0.0 0.0 0.00 0.00 0.00 65 1010.0
20260507201316 11 211 0.0 0.0 0.00 0.00 0.00 65 1010.0
20260507201107 12 142 0.0 0.0 0.00 0.00 0.00 65 1010.0
20260507200606 12 217 0.0 0.0 0.00 0.00 0.00 65 1009.9
20260507195816 12 202 0.0 0.0 0.00 0.00 0.00 65 1009.9
20260507195318 12 194 0.0 0.0 0.00 0.00 0.00 65 1009.9
20260507194811 12 220 0.0 0.0 0.00 0.00 0.00 65 1009.9
20260507194311 12 191 0.0 0.0 0.00 0.00 0.00 65 1009.9
20260507193811 12 210 0.0 0.0 0.00 0.00 0.00 65 1009.8
20260507193312 12 218 0.0 0.0 0.00 0.00 0.00 64 1009.8
20260507192810 12 221 0.0 0.0 0.00 0.00 0.00 64 1009.7
20260507192558 12 147 0.0 0.0 0.00 0.00 0.00 64 1009.7
20260507192057 12 198 0.0 0.0 0.00 0.00 0.00 63 1009.7
20260507191308 12 188 0.0 0.0 0.00 0.00 0.00 63 1009.7
20260507191057 12 194 0.0 0.0 0.00 0.00 0.00 62 1009.7
20260507190559 12 240 0.0 0.0 0.00 0.00 0.00 62 1009.7
20260507185808 12 209 0.0 0.0 0.00 0.00 0.00 62 1009.7
20260507185553 12 181 0.0 0.0 0.00 0.00 0.00 62 1009.7
20260507185058 13 242 0.0 0.0 0.00 0.00 0.00 61 1009.6
20260507184309 13 215 0.0 0.0 0.00 0.00 0.00 61 1009.6
20260507184054 13 197 0.0 0.0 0.00 0.00 0.00 61 1009.5
20260507183307 13 184 0.0 0.0 0.00 0.00 0.00 60 1009.6
20260507182807 13 269 0.0 0.0 0.00 0.00 0.00 60 1009.6
20260507182306 13 200 0.0 0.0 0.00 0.00 0.00 60 1009.5
20260507181804 13 238 0.0 0.0 0.00 0.00 0.00 59 1009.5
20260507181303 13 225 0.0 0.0 0.00 0.00 0.00 59 1009.4
20260507181051 13 178 0.0 0.0 0.00 0.00 0.00 59 1009.5
20260507180303 13 199 0.0 0.0 0.00 0.00 0.00 59 1009.4
20260507175803 13 90 0.0 0.0 0.00 0.00 0.00 58 1009.3
20260507175306 13 132 0.0 0.0 0.00 0.00 0.00 58 1009.3
20260507174804 13 85 0.0 0.0 0.00 0.00 0.00 57 1009.2
20260507174543 13 221 0.0 0.0 0.00 0.00 0.00 57 1009.2
20260507173834 14 194 0.0 0.0 0.00 0.00 0.00 55 1009.1
20260507173822 14 197 0.0 0.0 0.00 0.00 0.00 56 1009.1
20260507172756 15 191 0.0 0.0 0.00 0.00 0.00 54 1009.1
20260507172258 15 245 0.0 0.0 0.00 0.00 0.00 53 1009.3
20260507171757 15 239 0.0 0.0 0.00 0.00 0.00 53 1009.2
20260507171257 15 227 0.0 0.0 0.00 0.00 0.00 53 1009.2
20260507170757 15 214 0.0 0.0 0.00 0.00 0.00 53 1009.2
20260507170551 15 176 0.0 0.0 0.00 0.00 0.00 53 1009.3
20260507170040 15 201 0.0 0.0 0.00 0.00 0.00 52 1009.3
20260507165256 15 185 0.0 0.0 0.00 0.00 0.00 52 1009.4
20260507164756 15 217 0.0 0.0 0.00 0.00 0.00 52 1009.4
20260507164254 15 157 0.0 0.0 0.00 0.00 0.00 52 1009.5
20260507163755 15 231 0.0 0.0 0.00 0.00 0.00 51 1009.5
20260507163255 15 207 0.0 0.0 0.00 0.00 0.00 50 1009.4
20260507162755 15 223 0.0 0.0 0.00 0.00 0.00 50 1009.5
20260507162258 15 181 0.0 0.0 0.00 0.00 0.00 50 1009.5
20260507161755 15 188 0.0 0.0 0.00 0.00 0.00 50 1009.5
20260507161256 16 260 0.0 0.0 0.00 0.00 0.00 49 1009.4
20260507160752 16 227 0.0 0.0 0.00 0.00 0.00 50 1009.5
20260507160252 16 235 0.0 0.0 0.00 0.00 0.00 48 1009.5
20260507155754 16 242 0.0 0.0 0.00 0.00 0.00 49 1009.5
20260507155252 16 132 0.0 0.0 0.00 0.00 0.00 48 1009.4
20260507154755 16 205 0.0 0.0 0.00 0.00 0.00 51 1009.5
20260507154254 15 184 0.0 0.0 0.00 0.00 0.00 53 1009.5
20260507153750 15 191 0.0 0.0 0.00 0.00 0.00 53 1009.5
20260507153250 15 244 0.0 0.0 0.00 0.00 0.00 53 1009.5
20260507152750 14 239 0.0 0.0 0.00 0.00 0.00 54 1009.5
20260507152246 14 231 0.0 0.0 0.00 0.00 0.00 55 1009.6
20260507151747 14 161 0.0 0.0 0.00 0.00 0.00 55 1009.6
20260507151248 14 258 0.0 0.0 0.00 0.00 0.00 54 1009.8
20260507151032 14 186 0.0 0.0 0.00 0.00 0.00 53 1009.8
20260507150246 14 255 0.0 0.0 0.00 0.00 0.00 53 1009.8
20260507145745 14 196 0.0 0.0 0.00 0.00 0.00 54 1009.8
20260507145246 13 185 0.0 0.0 0.00 0.00 0.00 55 1009.8
20260507145038 13 249 0.0 0.0 0.00 0.00 0.00 55 1009.9
20260507144242 13 165 0.0 0.0 0.00 0.00 0.00 55 1009.8
20260507143742 13 242 0.0 0.0 0.00 0.00 0.00 55 1009.9
20260507143535 13 158 0.0 0.0 0.00 0.00 0.00 55 1009.9
20260507142740 13 223 0.0 0.0 0.00 0.00 0.00 55 1009.9
20260507142241 13 188 0.0 0.0 0.00 0.00 0.00 56 1010.0
20260507141742 12 177 0.0 0.0 0.00 0.00 0.00 56 1009.9
20260507141239 13 168 0.0 0.0 0.00 0.00 0.00 55 1010.0
20260507141029 13 120 0.0 0.0 0.00 0.00 0.00 55 1010.1
20260507140241 13 176 0.0 0.0 0.00 0.00 0.00 56 1010.2
20260507140027 13 209 0.0 0.0 0.00 0.00 0.00 55 1010.2
20260507135233 13 150 0.0 1.6 0.00 0.00 0.00 56 1010.2
20260507134725 13 200 0.0 1.6 0.00 0.00 0.00 56 1010.1
20260507134219 13 209 0.0 0.0 0.00 0.00 0.00 56 1010.1
20260507133713 13 216 0.0 0.0 0.00 0.00 0.00 56 1010.2
20260507133207 13 200 0.0 0.0 0.00 0.00 0.00 55 1010.3
20260507132710 13 218 0.0 0.0 0.00 0.00 0.00 56 1010.2
20260507132206 13 234 0.0 0.0 0.00 0.00 0.00 56 1010.2
20260507131704 13 233 0.0 0.0 0.00 0.00 0.00 56 1010.2
20260507131448 13 219 0.0 0.0 0.00 0.00 0.00 56 1010.1
20260507130702 13 165 0.0 0.0 0.00 0.00 0.00 56 1010.1
20260507130203 13 120 0.0 0.0 0.00 0.00 0.00 56 1010.2
20260507125706 12 214 0.0 0.0 0.00 0.00 0.00 56 1010.2
20260507125203 12 190 0.0 0.0 0.00 0.00 0.00 57 1010.3
20260507124951 12 117 0.0 0.0 0.00 0.00 0.00 57 1010.3
20260507124203 12 92 0.0 0.0 0.00 0.00 0.00 58 1010.3
20260507123704 12 148 0.0 0.0 0.00 0.00 0.00 58 1010.4
20260507123201 11 202 0.0 0.0 0.00 0.00 0.00 58 1010.4
20260507122954 11 266 0.0 0.0 0.00 0.00 0.00 58 1010.4
20260507122204 11 202 0.0 0.0 0.00 0.00 0.00 59 1010.5
20260507121947 11 227 0.0 0.0 0.00 0.00 0.00 59 1010.6
20260507121202 11 223 0.0 0.0 0.00 0.00 0.00 59 1010.6
20260507120704 11 168 0.0 0.0 0.00 0.00 0.00 59 1010.6
20260507120202 11 231 0.0 0.0 0.00 0.00 0.00 59 1010.7
20260507115704 11 212 0.0 0.0 0.00 0.00 0.00 59 1010.7
20260507115204 11 184 0.0 0.0 0.00 0.00 0.00 59 1010.8
20260507114702 11 201 0.0 0.0 0.00 0.00 0.00 59 1010.8
20260507114204 11 191 0.0 0.0 0.00 0.00 0.00 59 1010.8
20260507113702 11 165 0.0 0.0 0.00 0.00 0.00 59 1010.8
20260507113203 11 215 0.0 0.0 0.00 0.00 0.00 59 1010.8
20260507112703 11 62 0.0 0.0 0.00 0.00 0.00 58 1010.8
20260507112447 11 220 0.0 0.0 0.00 0.00 0.00 58 1010.9
20260507111704 11 202 0.0 0.0 0.00 0.00 0.00 58 1010.9
20260507111203 11 219 0.0 0.0 0.00 0.00 0.00 58 1011.0
20260507110702 11 213 0.0 0.0 0.00 0.00 0.00 58 1011.0
20260507110202 11 187 0.0 0.0 0.00 0.00 0.00 58 1011.1
20260507105704 11 163 0.0 0.0 0.00 0.00 0.00 58 1011.2
20260507105204 11 239 0.0 0.0 0.00 0.00 0.00 57 1011.2
20260507104702 11 188 0.0 0.0 0.00 0.00 0.00 57 1011.2
20260507104202 11 184 0.0 0.0 0.00 0.00 0.00 57 1011.1
20260507103704 12 241 0.0 0.0 0.00 0.00 0.00 57 1011.0
20260507103203 12 201 0.0 0.0 0.00 0.00 0.00 57 1011.0
20260507102703 12 220 0.0 0.0 0.00 0.00 0.00 57 1011.0
20260507102203 12 234 0.0 0.0 0.00 0.00 0.00 57 1011.0
20260507101701 12 236 0.0 0.0 0.00 0.00 0.00 57 1011.0
20260507101202 12 252 0.0 0.0 0.00 0.00 0.00 57 1011.0
20260507100942 12 173 0.0 0.0 0.00 0.00 0.00 57 1010.9
20260507100452 12 210 0.0 0.0 0.00 0.00 0.00 57 1010.8
20260507095701 12 164 0.0 0.0 0.00 0.00 0.00 56 1010.8
20260507095204 12 231 0.0 0.0 0.00 0.00 0.00 56 1010.8
20260507094703 12 173 0.0 0.0 0.00 0.00 0.00 56 1010.8
20260507094203 12 209 0.0 0.0 0.00 0.00 0.00 56 1010.8
20260507093702 12 201 0.0 0.0 0.00 0.00 0.00 56 1010.7
20260507093201 12 205 0.0 0.0 0.00 0.00 0.00 56 1010.8
20260507092702 12 245 0.0 0.0 0.00 0.00 0.00 56 1010.7
20260507092204 12 176 0.0 0.0 0.00 0.00 0.00 56 1010.5
20260507091736 12 211 0.0 0.0 0.00 0.00 0.00 56 1010.6
20260507091725 12 207 0.0 0.0 0.00 0.00 0.00 57 1010.6
20260507090704 12 198 0.0 0.0 0.00 0.00 0.00 56 1010.7
20260507090203 13 160 0.0 0.0 0.00 0.00 0.00 56 1010.7
20260507085702 13 242 0.0 0.0 0.00 0.00 0.00 56 1010.6
20260507085202 12 180 0.0 0.0 0.00 0.00 0.00 56 1010.7
20260507084948 13 200 0.0 0.0 0.00 0.00 0.00 56 1010.7
20260507084448 12 206 0.0 0.0 0.00 0.00 0.00 57 1010.7
20260507083703 12 236 0.0 0.0 0.00 0.00 0.00 57 1010.8
20260507083206 12 232 0.0 0.0 0.00 0.00 0.00 57 1010.8
20260507082705 12 209 0.0 0.0 0.00 0.00 0.00 57 1010.8
20260507082202 12 196 0.0 0.0 0.00 0.00 0.00 58 1010.8
20260507081704 12 209 0.0 0.0 0.00 0.00 0.00 58 1010.8
20260507081203 11 231 0.0 0.0 0.00 0.00 0.00 58 1010.9
20260507080703 11 202 0.0 0.0 0.00 0.00 0.00 58 1010.9
20260507080201 11 229 0.0 0.0 0.00 0.00 0.00 58 1010.9
20260507075702 11 155 0.0 0.0 0.00 0.00 0.00 59 1010.9
20260507075203 11 214 0.0 0.0 0.00 0.00 0.00 59 1011.0
20260507074705 10 229 0.0 0.0 0.00 0.00 0.00 60 1011.0
20260507074232 10 174 0.0 0.0 0.00 0.00 0.00 60 1010.9
20260507074224 10 238 0.0 0.0 0.00 0.00 0.00 60 1011.0
20260507073443 9 155 0.0 0.0 0.00 0.00 0.00 60 1011.0
20260507072703 9 220 0.0 0.0 0.00 0.00 0.00 61 1011.0
20260507072203 8 225 0.0 0.0 0.00 0.00 0.00 61 1011.0
20260507071703 8 154 0.0 0.0 0.00 0.00 0.00 61 1010.9
20260507071202 8 215 0.0 0.0 0.00 0.00 0.00 61 1010.9
20260507070703 8 222 0.0 0.0 0.00 0.00 0.00 61 1011.0
20260507070204 8 242 0.0 0.0 0.00 0.00 0.00 61 1010.9
20260507065703 8 236 0.0 0.0 0.00 0.00 0.00 61 1011.0
20260507065203 8 128 0.0 0.0 0.00 0.00 0.00 61 1011.0
20260507064703 8 211 0.0 0.0 0.00 0.00 0.00 62 1010.9
20260507064202 8 248 0.0 0.0 0.00 0.00 0.00 62 1011.0
20260507063703 7 124 0.0 0.0 0.00 0.00 0.00 62 1010.9
20260507063202 7 270 0.0 0.0 0.00 0.00 0.00 62 1010.9
20260507062704 7 209 0.0 0.0 0.00 0.00 0.00 62 1011.0
20260507062202 7 189 0.0 0.0 0.00 0.00 0.00 62 1011.0
20260507061702 7 115 0.0 0.0 0.00 0.00 0.00 62 1011.0
20260507061202 6 240 0.0 0.0 0.00 0.00 0.00 63 1011.0
20260507060704 6 190 0.0 0.0 0.00 0.00 0.00 63 1011.0
20260507060202 6 200 0.0 0.0 0.00 0.00 0.00 63 1011.0
20260507055703 6 180 0.0 0.0 0.00 0.00 0.00 63 1011.0
20260507055202 6 263 0.0 0.0 0.00 0.00 0.00 64 1011.1
20260507054739 5 207 0.0 0.0 0.00 0.00 0.00 64 1011.1
20260507054726 5 226 0.0 0.0 0.00 0.00 0.00 64 1011.1
20260507053945 5 207 0.0 0.0 0.00 0.00 0.00 64 1011.1
20260507053204 5 207 0.0 0.0 0.00 0.00 0.00 64 1011.1
20260507052702 5 207 0.0 0.0 0.00 0.00 0.00 64 1011.1
20260507052202 5 207 0.0 0.0 0.00 0.00 0.00 64 1011.2
20260507051704 5 207 0.0 0.0 0.00 0.00 0.00 65 1011.1
20260507051202 5 207 0.0 0.0 0.00 0.00 0.00 65 1011.2
20260507050703 5 207 0.0 0.0 0.00 0.00 0.00 65 1011.2
20260507050201 5 207 0.0 0.0 0.00 0.00 0.00 66 1011.2
20260507045703 5 207 0.0 0.0 0.00 0.00 0.00 66 1011.2
20260507045204 6 207 0.0 0.0 0.00 0.00 0.00 66 1011.2
20260507044703 6 207 0.0 0.0 0.00 0.00 0.00 66 1011.2
20260507044447 6 207 0.0 0.0 0.00 0.00 0.00 67 1011.2
20260507043703 6 207 0.0 0.0 0.00 0.00 0.00 67 1011.2
20260507043445 6 207 0.0 0.0 0.00 0.00 0.00 67 1011.2
20260507042705 6 207 0.0 0.0 0.00 0.00 0.00 67 1011.2
20260507042204 6 207 0.0 0.0 0.00 0.00 0.00 67 1011.2
20260507041703 6 207 0.0 0.0 0.00 0.00 0.00 67 1011.1
20260507041202 6 207 0.0 0.0 0.00 0.00 0.00 67 1011.1
20260507040703 6 207 0.0 0.0 0.00 0.00 0.00 67 1011.0
20260507040203 6 207 0.0 0.0 0.00 0.00 0.00 67 1011.1
20260507035703 6 207 0.0 0.0 0.00 0.00 0.00 67 1011.0
20260507035201 7 207 0.0 0.0 0.00 0.00 0.00 67 1011.0
20260507034702 7 207 0.0 0.0 0.00 0.00 0.00 67 1011.1
20260507034203 7 207 0.0 0.0 0.00 0.00 0.00 66 1011.2
20260507033943 7 207 0.0 0.0 0.00 0.00 0.00 66 1011.3
20260507033159 7 207 0.0 0.0 0.00 0.00 0.00 66 1011.4
20260507032656 7 207 0.0 0.0 0.00 0.00 0.00 66 1011.4
20260507032153 7 207 0.0 0.0 0.00 0.00 0.00 66 1011.4
20260507031935 7 207 0.0 0.0 0.00 0.00 0.00 66 1011.5
20260507031156 7 207 0.0 0.0 0.00 0.00 0.00 66 1011.4
20260507030652 7 207 0.0 0.0 0.00 0.00 0.00 66 1011.4
20260507030431 7 198 0.0 0.0 0.00 0.00 0.00 66 1011.4
20260507025648 7 238 0.0 0.0 0.00 0.00 0.00 67 1011.5
20260507025149 7 229 0.0 0.0 0.00 0.00 0.00 67 1011.4
20260507024647 7 184 0.0 0.0 0.00 0.00 0.00 67 1011.4
20260507024147 7 184 0.0 0.0 0.00 0.00 0.00 66 1011.4
20260507023643 7 171 0.0 0.0 0.00 0.00 0.00 66 1011.4
20260507023427 7 171 0.0 0.0 0.00 0.00 0.00 66 1011.4
20260507022642 7 171 0.0 0.0 0.00 0.00 0.00 66 1011.4
20260507022424 7 171 0.0 0.0 0.00 0.00 0.00 66 1011.3
20260507021640 7 171 0.0 0.0 0.00 0.00 0.00 66 1011.3
20260507021139 7 171 0.0 0.0 0.00 0.00 0.00 66 1011.3
20260507020637 6 171 0.0 0.0 0.00 0.00 0.00 66 1011.3
20260507020140 6 171 0.0 0.0 0.00 0.00 0.00 66 1011.3
20260507015638 6 173 0.0 0.0 0.00 0.00 0.00 66 1011.4
20260507015138 6 221 0.0 0.0 0.00 0.00 0.00 66 1011.4
20260507014638 6 219 0.0 0.0 0.00 0.00 0.00 67 1011.4
20260507014134 6 221 0.0 0.0 0.00 0.00 0.00 67 1011.4
20260507013633 6 168 0.0 0.0 0.00 0.00 0.00 67 1011.5
20260507013158 6 138 0.0 0.0 0.00 0.00 0.00 67 1011.6
20260507013148 6 138 0.0 0.0 0.00 0.00 0.00 67 1011.6
20260507012132 6 138 0.0 0.0 0.00 0.00 0.00 67 1011.7
20260507011633 6 138 0.0 0.0 0.00 0.00 0.00 67 1011.7
20260507011139 6 151 0.0 0.0 0.00 0.00 0.00 67 1011.8
20260507011132 6 138 0.0 0.0 0.00 0.00 0.00 67 1011.8
20260507010133 6 151 0.0 0.0 0.00 0.00 0.00 67 1011.8
20260507005633 6 151 0.0 0.0 0.00 0.00 0.00 67 1011.8
20260507005132 6 151 0.0 0.0 0.00 0.00 0.00 67 1011.9
20260507004632 6 151 0.0 0.0 0.00 0.00 0.00 67 1011.9
20260507004416 6 153 0.0 0.0 0.00 0.00 0.00 67 1012.0
20260507003632 6 153 0.0 0.0 0.00 0.00 0.00 67 1012.0
20260507003415 6 139 0.0 0.0 0.00 0.00 0.00 67 1012.1
20260507002632 6 158 0.0 0.0 0.00 0.00 0.00 67 1012.1
20260507002131 6 148 0.0 0.0 0.00 0.00 0.00 67 1012.1
20260507001632 6 147 0.0 0.0 0.00 0.00 0.00 67 1012.2
20260507001131 6 146 0.0 0.0 0.00 0.00 0.00 67 1012.2
20260507000631 6 140 0.0 0.0 0.00 0.00 0.00 67 1012.2
20260507000131 6 163 0.0 0.0 0.00 0.00 0.00 67 1012.2
20260506235631 6 146 0.0 0.0 0.00 0.00 0.00 67 1012.2
20260506235133 6 140 0.0 0.0 0.00 0.00 0.00 67 1012.2
20260506234633 6 171 0.0 0.0 0.00 0.00 0.00 67 1012.2
20260506234132 6 163 0.0 0.0 0.00 0.00 0.00 67 1012.3
20260506233632 6 147 0.0 0.0 0.00 0.00 0.00 67 1012.3
20260506233131 6 169 0.0 0.0 0.00 0.00 0.00 67 1012.3